Regional Weather Roundup
Issued by NWS

Home | Current Version | Previous Version | Text Only | Print | Product List | Glossary On
Versions: 1 2 3 4 5 6 7 8 9 10 11 12 13 14 15 16 17 18 19 20 21 22 23 24 25 26 27 28 29 30 31 32 33 34 35 36 37 38 39 40 41 42 43 44 45 46 47 48 49 50
000
ASUS42 KFFC 030303
RWRGA
WEATHER ROUNDUP FOR GEORGIA
NATIONAL WEATHER SERVICE PEACHTREE CITY GA
1000 PM EST MON MAR 02 2015

NOTE: "FAIR" INDICATES FEW OR NO CLOUDS BELOW 12,000 FEET WITH NO
SIGNIFICANT WEATHER AND/OR OBSTRUCTIONS TO VISIBILITY.

* = USE WITH CAUTION. THE STATIONS MARKED WITH AN ASTERISK MAY NOT
REPORT WEATHER SUCH AS PRECIPITATION, FOG, OR THUNDER AND ARE NOT
QUALITY CONTROLLED BY NWS.

THE REMARK "TC" DENOTES TEMPERATURE READING IN DEGREES CELSIUS.

GAZ001>058-030400-
NORTH GEORGIA

CITY           SKY/WX    TMP DP  RH WIND       PRES   REMARKS
ATLANTA        MOCLDY    54  46  74 N8        30.27S
ATHENS         CLOUDY    57  48  72 W5        30.25S
CHAMBLEE       CLOUDY    53  43  68 NW3       30.27S
PEACHTREE CITY CLOUDY    55  49  80 CALM      30.28R
ROME           CLOUDY    51  41  68 N5        30.27F
WEST ATLANTA   CLOUDY    54  44  69 N3        30.27S
GAINESVILLE    CLOUDY    53  46  77 W8        30.27R
CARTERSVILLE   CLOUDY    50  40  68 N5        30.29R


CITY           SKY/WX    TMP DP  RH WIND       PRES   REMARKS
DALTON*        CLOUDY    45  41  87 CALM      30.28F
MARIETTA       MOCLDY    52  44  73 N5        30.26F
$$

GAZ059>098-102>109-030400-
CENTRAL GEORGIA

CITY           SKY/WX    TMP DP  RH WIND       PRES   REMARKS
AUGUSTA-BUSH   CLOUDY    60  56  86 CALM      30.24R
AUGUSTA-DANIEL CLOUDY    68  56  65 N3        30.25R
COLUMBUS       CLOUDY    62  57  83 CALM      30.24S
MACON          CLOUDY    65  59  81 W3        30.25R
ROBINS AFB     CLOUDY    67  61  80 W6        30.24S


CITY           SKY/WX    TMP DP  RH WIND       PRES   REMARKS
LAGRANGE*      CLOUDY    59  56  91 NE5       30.27R
SYLVANIA*      PTCLDY    58  58 100 CALM      30.25R
MILLEDGEVILLE* CLOUDY    63  55  77 CALM      30.26R
$$

GAZ099>101-110>166-030400-
SOUTH GEORGIA

CITY           SKY/WX    TMP DP  RH WIND       PRES   REMARKS
SAVANNAH       PTCLDY    60  56  86 CALM      30.25R
VALDOSTA       CLEAR     57  56  96 CALM      30.25F
ALMA           PTCLDY    57  56  96 CALM      30.25R FOG
ST SIMONS      CLEAR     56  54  93 SW5       30.25S
FT STEWART     PTCLDY    60  58  93 CALM      30.23R
ALBANY         PTCLDY    56  54  93 CALM      30.27R
HUNTER AFB     MOCLDY    60  60 100 SW1       30.22S
MOODY AFB      PTCLDY    59  57  94 CALM      30.24S FOG
BRUNSWICK      CLEAR     59  57  94 CALM      30.26S


CITY           SKY/WX    TMP DP  RH WIND       PRES   REMARKS
BAINBRIDGE*      N/A     59  57  94 SE5       30.25F FOG
MOULTRIE*      PTCLDY    59  59 100 CALM      30.26S FOG
VIDALIA*       PTCLDY    63  61  94 SW5       30.25S
WAYCROSS*      PTCLDY    62  62  99 CALM      30.25S
DOUGLAS*       MOCLDY    61  59  94 SW3       30.26S FOG
$$


USA.gov is the U.S. government's official web portal to all federal, state and local government web resources and services.